KDYT

Details ICAO KDYT
Name Sky Harbor
Region United States
Timezone America/Chicago (UTC-5.0)
Plans Departing 2
Arriving 17
Stats Elevation 610 ft / 186 m (AMSL)
Location 46.721860° -92.043439°
Runways 1
Magnetic Variation 1.066° W
Sunrise 2018-05-24 10:25:35 UTC / 2018-05-24 05:25:35 Local
Sunset 2018-05-25 01:47:21 UTC / 2018-05-24 20:47:21 Local
Advertisement - Login to hide

Runways

ID Width Length Bearing (true) Bearing (mag) Surface Threshold Offset Overrun Length
14 75 ft / 23 m 3,046 ft / 928 m 138.33° 139.40° Asphalt 0 ft / 0 m 0 ft / 0 m
32 75 ft / 23 m 3,046 ft / 928 m 318.34° 319.41° Asphalt 0 ft / 0 m 0 ft / 0 m

Map

Weather


0- 5 10 15 20 25 30 35+ Temperature / ° C

Clouds and Precipitation
Forecast for 2018-05-24 06:00 UTC. Updated 2 hours ago

Ground ~20,000 ft ~40,000 ft Winds

METAR

KDYT 240655Z AUTO 06004KT 10SM CLR 10/07 A3009 RMK AO2 LTG DSNT SW AND W

TAF

Not found

Frequencies

Recorded 119.27 MHz AWOS 3
Clearance 124.80 MHz DULUTH CLNC DEL
Unicom 122.70 MHz CTAF/UNICOM
Approach 125.45 MHz DULUTH APP/DEP
Warning: Do not use this data for real-world aviation or navigation. No guarantee of current accuracy is given.